Location: Borovka
(49.7741°N, 14.5280°E)
Time: 07:40:09
(UTC+00:00)

Aureole 3 Rocket - Pass Details

Date: 17 November 2025
Orbit: 398 x 1690 km, 82.5° (Epoch: 12 December)

Event Time Altitude Azimuth Distance (km) Brightness Sun altitude
Rises 16:10:27 0° 155° (SSE) 2,320 6.0 -8.8°
Reaches altitude 10° 16:12:46 10° 136° (SE) 1,447 4.7 -9.2°
Maximum altitude 16:15:01 19° 88° (E) 1,039 3.6 -9.5°
Enters shadow 16:17:01 12° 45° (NE) 1,413 4.4 -9.9°
